CW0762 Weather Reports


time (UTC)temp
C
wind
direction
speed
KPH
gust
KPH
rain 1hr
cm
rain 24hr
cm
rain mn
cm
humidity
%
barometer
mb
20260506004556 22 274 0.0 8.0 0.00 0.00 0.00 65 1006.6
20260506003057 23 286 1.6 6.4 0.00 0.00 0.00 65 1006.1
20260506001555 23 264 1.6 9.7 0.00 0.00 0.00 64 1005.5
20260506000055 24 355 0.0 6.4 0.00 0.00 0.00 64 1005.7
20260505234556 25 230 1.6 8.0 0.00 0.00 0.00 62 1005.5
20260505233053 26 360 0.0 4.8 0.00 0.00 0.00 61 1005.2
20260505231553 27 303 0.0 8.0 0.00 0.00 0.00 60 1005.1
20260505224553 28 63 0.0 4.8 0.00 0.00 0.00 55 1004.5
20260505223106 29 290 0.0 4.8 0.00 0.00 0.00 53 1004.5
20260505221551 30 5 0.0 6.4 0.00 0.00 0.00 47 1004.2
20260505220051 30 288 0.0 9.7 0.00 0.00 0.00 48 1004.0
20260505214550 31 281 1.6 9.7 0.00 0.00 0.00 45 1004.2
20260505213057 32 119 3.2 11.3 0.00 0.00 0.00 47 1003.9
20260505211550 32 80 0.0 6.4 0.00 0.00 0.00 48 1004.2
20260505210047 32 109 3.2 19.3 0.00 0.00 0.00 48 1004.2
20260505204545 32 118 4.8 17.7 0.00 0.00 0.00 50 1004.4
20260505203051 32 119 4.8 14.5 0.00 0.00 0.00 52 1004.5
20260505201543 32 114 8.0 16.1 0.00 0.00 0.00 50 1004.8
20260505200039 31 118 1.6 14.5 0.00 0.00 0.00 56 1004.9
20260505194537 30 120 6.4 12.9 0.00 0.00 0.00 57 1004.9
20260505193035 30 131 4.8 17.7 0.00 0.00 0.00 59 1005.2
20260505191532 30 137 4.8 14.5 0.00 0.00 0.00 61 1004.9
20260505190033 29 156 3.2 16.1 0.00 0.00 0.00 63 1005.0
20260505184526 28 145 6.4 17.7 0.00 0.00 0.00 64 1005.0
20260505183025 28 43 6.4 19.3 0.00 0.00 0.00 65 1005.3
20260505181523 28 125 4.8 12.9 0.00 0.00 0.00 66 1005.1
20260505180022 28 134 4.8 17.7 0.00 0.00 0.00 65 1005.3
20260505174521 27 122 4.8 16.1 0.00 0.00 0.00 66 1005.2
20260505173035 27 49 3.2 14.5 0.00 0.00 0.00 69 1005.1
20260505171516 27 135 3.2 20.9 0.00 0.00 0.00 70 1005.2
20260505170022 26 55 4.8 16.1 0.00 0.00 0.00 71 1005.4
20260505164527 26 112 4.8 19.3 0.00 0.00 0.00 71 1005.3
20260505163013 26 133 6.4 14.5 0.00 0.00 0.00 73 1005.1
20260505161506 25 30 3.2 20.9 0.00 0.00 0.00 75 1005.0
20260505153115 24 133 4.8 16.1 0.00 0.00 0.00 78 1005.1
20260505151601 24 126 3.2 14.5 0.00 0.00 0.00 79 1004.9
20260505124550 21 130 3.2 12.9 0.00 0.00 0.00 88 1004.5
20260505123048 21 134 4.8 17.7 0.00 0.00 0.00 88 1004.4
20260505121548 21 138 3.2 12.9 0.00 0.00 0.00 88 1004.1
20260505120047 21 47 3.2 14.5 0.00 0.00 0.00 88 1004.1
20260505114547 21 127 4.8 19.3 0.00 0.00 0.00 88 1004.2
20260505113046 21 55 3.2 17.7 0.00 0.00 0.00 88 1004.0
20260505111553 21 136 3.2 11.3 0.00 0.00 0.00 88 1003.9
20260505101541 21 51 3.2 14.5 0.00 0.00 0.00 87 1003.9
20260505100049 21 40 4.8 20.9 0.00 0.00 0.00 86 1004.0
20260505094538 21 44 4.8 16.1 0.00 0.00 0.00 85 1004.0
20260505093036 21 67 4.8 14.5 0.00 0.00 0.00 85 1004.2
20260505091550 21 61 3.2 19.3 0.00 0.00 0.00 84 1004.3
20260505090050 21 123 3.2 20.9 0.00 0.00 0.00 84 1004.3
20260505084537 21 144 3.2 17.7 0.00 0.00 0.00 83 1004.3
20260505083040 22 101 3.2 17.7 0.00 0.00 0.00 82 1004.3
20260505081548 22 127 3.2 16.1 0.00 0.00 0.00 81 1004.4
20260505080038 22 24 3.2 11.3 0.00 0.00 0.00 80 1004.4
20260505074526 22 80 3.2 9.7 0.00 0.00 0.00 79 1004.6
20260505073022 22 59 3.2 11.3 0.00 0.00 0.00 78 1005.0
20260505071526 22 57 3.2 12.9 0.00 0.00 0.00 77 1005.3
20260505070023 22 65 1.6 14.5 0.00 0.00 0.00 76 1005.5
20260505064515 22 62 4.8 14.5 0.00 0.00 0.00 75 1005.7
20260505063015 23 119 4.8 12.9 0.00 0.00 0.00 74 1005.8
20260505061523 23 55 3.2 19.3 0.00 0.00 0.00 73 1005.9
20260505060012 23 53 4.8 12.9 0.00 0.00 0.00 72 1006.0
20260505054518 23 54 1.6 14.5 0.00 0.00 0.00 72 1005.9
20260505053009 23 51 3.2 14.5 0.00 0.00 0.00 72 1005.9
20260505051506 23 55 3.2 12.9 0.00 0.00 0.00 72 1006.0
20260505041504 23 44 4.8 16.1 0.00 0.00 0.00 71 1006.1
20260505040003 23 60 4.8 12.9 0.00 0.00 0.00 71 1006.3
20260505034503 23 42 4.8 11.3 0.00 0.00 0.00 70 1006.2
20260505033003 23 33 4.8 14.5 0.00 0.00 0.00 70 1006.1
20260505031502 23 69 3.2 14.5 0.00 0.00 0.00 70 1006.3
20260505030002 23 41 4.8 14.5 0.00 0.00 0.00 70 1006.3
20260505024504 23 26 3.2 9.7 0.00 0.00 0.00 69 1006.5
20260505023001 23 55 1.6 11.3 0.00 0.00 0.00 68 1006.4
20260505021613 23 52 3.2 9.7 0.00 0.00 0.00 68 1006.2
20260505014600 24 54 3.2 14.5 0.00 0.00 0.00 67 1006.2
20260505013101 24 46 4.8 11.3 0.00 0.00 0.00 66 1006.2
20260505011559 24 50 8.0 17.7 0.00 0.00 0.00 65 1006.1
20260505010058 25 33 3.2 14.5 0.00 0.00 0.00 64 1006.2